Regional Weather Roundup
Issued by NWS

Home | Current Version | Previous Version | Graphics & Text | Print | Product List | Glossary On
Versions: 1 2 3 4 5 6 7 8 9 10 11 12 13 14 15 16 17 18 19 20 21 22 23 24 25 26 27 28
000
ASUS45 KTFX 182010
RWRMT
MONTANA REGIONAL WEATHER ROUNDUP
NATIONAL WEATHER SERVICE GREAT FALLS MT
100 PM MST WED JAN 18 2017

NOTE: "FAIR" INDICATES FEW OR NO CLOUDS BELOW 12000 FEET WITH NO
SIGNIFICANT WEATHER AND/OR OBSTRUCTIONS TO VISIBILITY.

MTZ001>007-043-182100-
WEST OF THE DIVIDE

CITY           SKY/WX    TMP DP  RH WIND       PRES   REMARKS
KALISPELL      LGT SNOW  27  24  89 CALM      29.69F
MISSOULA       CLOUDY    26  20  77 CALM      29.77S HAZE
BUTTE          CLOUDY    39  20  46 S10       29.75F
MULLAN PASS    FOG       30  29  96 VRB5      29.63F VSB 1/4
ANACONDA         N/A     45  25  45 SE18G35   29.70F
DEER LODGE       N/A     45  27  49 S10G16    29.71S
EUREKA           N/A     37  34  87 S17       29.63F WCI  28
HAMILTON         N/A     48  27  43 SE8       29.72F
PLAINS           N/A     28  21  75 CALM      29.73F
RONAN            N/A     26  22  85 CALM      29.76S
$$

MTZ008-052>055-182100-
SOUTHWEST MONTANA

CITY           SKY/WX    TMP DP  RH WIND       PRES   REMARKS
BOZEMAN        CLOUDY    31  21  66 SW3       29.75F
DILLON         CLOUDY    44  19  36 SW9       29.81F
ENNIS          SUNNY     30  18  59 S18G24    29.86S WCI  18
TWIN BRIDGES     N/A     32  15  49 SE9       29.83F WCI  24
$$

MTZ009-010-012-014-046-048-049-054-182100-
EAST SLOPES AND CENTRAL MONTANA

CITY           SKY/WX    TMP DP  RH WIND       PRES   REMARKS
CUT BANK       CLOUDY    50  34  54 S13G22    29.50R
GREAT FALLS    MOSUNNY   45  25  45 S15G21    29.57F
MALMSTROM AFB  CLOUDY    47  28  48 SW12G31   29.57F
HELENA         CLOUDY    34  20  56 NW5       29.70F
AUGUSTA          N/A     44  33  65 S16       29.55S
BOWMANS CRNR     N/A     40  24  53 S38       29.52F
CHOTEAU          N/A     48  34  57 VRB6G13   29.54F
CONRAD           N/A     41  35  79 S15       29.57S
POWER            N/A     38  29  72 S16       29.54F WCI  28
RAYNESFORD     PTSUNNY   56  24  29 SW9G24    29.57F
ULM            PTSUNNY   42  28  57 MISG      29.58F
$$

MTZ011-013-016-021-045-047-050-051-182100-
NORTH CENTRAL MONTANA

CITY           SKY/WX    TMP DP  RH WIND       PRES   REMARKS
HAVRE          MOSUNNY   42  30  62 W14       29.51S
LEWISTOWN      CLOUDY    44  27  51 SW16      29.58F
N BAR RANCH      N/A     57  19  23 W8G16     29.58F
CHINOOK          N/A     52  30  43 W17G31    29.46F
DENTON           N/A     47  26  44 W8        29.52F
FORT BENTON      N/A     52  28  40 MISG      29.53F
GEYSER         PTSUNNY   51  26  37 NW12      29.55S
GRASS RANGE      N/A     54  26  34 W13       29.52F
JUDITH GAP       N/A     45  22  40 W33G43    29.58F
ROY              N/A     57  28  33 MISG      29.53F
STANFORD         N/A     52  24  34 NW9       29.55F
WINIFRED         N/A     47  26  44 SW15      29.54F
$$

MTZ017>020-022>027-061-062-182100-
NORTHEAST MONTANA

CITY           SKY/WX    TMP DP  RH WIND       PRES   REMARKS
GLASGOW        CLOUDY    37  29  72 S7        29.51F WCI  32
JORDAN           N/A     45  28  51 W12       29.54F
SIDNEY         SUNNY     36  25  64 SW22      29.57F WCI  25
WOLF POINT     CLOUDY    37  26  64 CALM      29.55F
PLENTYWOOD       N/A     34  27  75 E8        29.52F WCI  27
POPLAR           N/A     43  27  52 SW7       29.55F
SCOBEY           N/A     35  23  62 SE2       29.52F
$$

MTZ028>42-056>058-182100-
SOUTHCENTRAL AND SOUTHEAST MONTANA

CITY           SKY/WX    TMP DP  RH WIND       PRES   REMARKS
BAKER          CLOUDY    34  26  72 S6        29.64F WCI  29
BILLINGS       CLOUDY    45  21  38 SW25G33   29.64F
LIVINGSTON     CLOUDY    47  13  25 SW33G48   29.70S
MILES CITY     CLOUDY    32  21  64 S13       29.61F WCI  22
BIG TIMBER     SUNNY     46  12  25 W31G37    29.69F
EKALAKA          N/A     46  19  34 SE3       29.65
FORSYTH          N/A     36  25  64 CALM      29.60F
HARLOWTON      PTSUNNY   49  19  30 W28       29.62S
LAUREL           N/A     42  20  41 SW21      29.68S
ROUNDUP          N/A     47  19  33 S15       29.58F
$$

REGIONAL REPORTS...DAKOTAS

CITY           SKY/WX    TMP DP  RH WIND       PRES   REMARKS
WILLISTON      CLOUDY    37  26  64 SW10      29.58F WCI  30
MINOT          CLOUDY    42  27  55 SW13      29.57F
DICKINSON      SUNNY     39  26  59 SW17      29.61F WCI  30
BEACH            N/A     36  28  75 S14       29.63F WCI  27
CROSBY           N/A     36  28  75 S22G29    29.54F WCI  24
TIOGA            N/A     37  30  75 SW17      29.58S WCI  28
WATFORD CITY     N/A     41  28  60 CALM      29.59S
BISMARCK       CLOUDY    33  25  72 E3        29.68F
GRAND FORKS    CLOUDY    31  23  72 S10       29.67F WCI  22
FARGO          SUNNY     35  26  69 S10       29.71F WCI  27
BUFFALO SD       N/A     41  24  51 NW7       29.60F
RAPID CITY     CLOUDY    37  24  59 CALM      29.68F
$$

REGIONAL REPORTS...WYOMING/IDAHO/WASHINGTON

CITY           SKY/WX    TMP DP  RH WIND       PRES   REMARKS
GILLETTE       SUNNY     48  22  35 SW12      29.68F
SHERIDAN       CLOUDY    30  19  63 MISG      29.66F
BUFFALO WY     CLOUDY    49  27  42 CALM      29.68F
CODY           CLOUDY    22  14  71 N8        29.74F WCI  12
YELLOWSTONE LA   N/A     13   8  81 CALM      29.97F
IDAHO FALLS    CLOUDY    13   8  81 N9        30.03F WCI   1
SALMON         CLOUDY     9   1  72 CALM      29.98F
BOISE          PTSUNNY   24  21  88 SW6       29.89F FOG     WCI  17
SPOKANE        CLOUDY    39  32  76 SE16G26   29.57F WCI  30
$$

REGIONAL REPORTS...ALBERTA

CITY           SKY/WX    TMP DP  RH WIND       PRES   REMARKS
EDMONTON       PTSUNNY   45  27  49 SW8       29.18S
CALGARY        PTSUNNY   41  30  65 SE5       29.27S
LETHBRIDGE     MOSUNNY   50  32  50 SW25G37   29.39F
MEDICINE HAT   PTSUNNY   43  36  75 S17       29.39R
WATERTON GATE    N/A     43  32  65 SW32G49     N/A
MILK RIVER       N/A     45  36  70 SW17G25     N/A
$$

REGIONAL REPORTS...SASKATCHEWAN

CITY           SKY/WX    TMP DP  RH WIND       PRES   REMARKS
SWIFT CURRENT  SUNNY     45  34  65 SW17G26   29.38S
REGINA         PTSUNNY   37  32  81 SE9       29.43F WCI  31
SASKATOON      CLOUDY    41  32  70 S17       29.30S
CYPRESS HILLS    N/A     39  28  65 SW16G25     N/A  WCI  30
VAL MARIE        N/A     39  30  70 SW9         N/A
ROCKGLEN         N/A     39  28  65 S14         N/A  WCI  31
ASSINIBOIA       N/A     43  28  56 SW8         N/A
$$




USA.gov is the U.S. government's official web portal to all federal, state and local government web resources and services.